Location: Lussas
(44.6119°N, 4.4726°E)
Time: 05:42:46
(UTC+00:00)

FENGYUN 3A - Pass Details

Date: 26 November 2020
Orbit: 823 x 837 km, 98.4° (Epoch: 18 January)

Event Time Altitude Azimuth Distance (km) Brightness Sun altitude
Rises 04:05:23 0° 15° (NNE) 3,392 7.0 -29.4°
Reaches altitude 10° 04:07:46 10° 18° (NNE) 2,452 6.3 -28.9°
Maximum altitude 04:13:11 69° 102° (ESE) 891 3.9 -28.0°
Drops below altitude 10° 04:18:33 10° 186° (S) 2,425 6.1 -27.0°
Sets 04:20:54 0° 188° (S) 3,352 6.8 -26.6°
